Torna al catalogo

FENGYUN 1C DEB

AttivoPO
NORAD 31948·DEBRIS·🇨🇳 China

Lanciato May 10, 1999 da Taiyuan Satellite Launch Center

Loading…

Prossimi Passaggi (prossime 24 ore)

TLE

AggiornatoSource: Space-Track

Epoca: Sep 12, 2026, 04:30 UTC

1 31948U 99025CMZ 26255.18802437  .00001961  00000-0  77827-3 0  9994
2 31948  99.3797 341.3901 0020967 316.7854  73.0977 14.29960376989343

Traccia FENGYUN 1C DEB in tempo reale con AllMySat

Download on the App Store